Dewpoint
49 49 49 49 49 49 49 49 49 49 49 49 49 49 49 50 51 45 25 26 43 52 54 44 38 39 37 34 32 29 21 17 12 16 13 20 21 23 22 20 22 23 27 29 46
49 49 49 49 49 49 49 49 49 48 48 48 48 49 49 51 46 41 42 51 53 56 42 37 36 37 34 34 31 28 23 19 21 18 18 21 23 22 21 23 23 27 29 33 51
49 49 49 49 49 49 49 49 48 48 48 48 49 49 50 50 33 1 57 54 54 53 39 35 36 34 30 34 32 29 22 26 24 24 24 22 22 22 22 22 26 27 28 33 41
49 49 48 48 48 48 48 50 48 48 48 49 49 50 50 46 -12 24 53 57 56 52 38 31 32 31 28 29 32 26 27 26 24 24 25 23 24 24 25 27 28 28 27 26 31
48 48 47 47 47 47 48 49 48 48 49 49 49 49 45 19 7 13 42 40 51 45 32 31 27 27 24 25 27 29 27 27 26 25 26 27 27 27 26 27 27 25 27 31 32
47 46 46 46 46 46 47 48 49 49 49 49 50 47 43 13 5 28 34 30 33 39 36 34 30 28 26 26 27 29 28 27 27 27 28 27 27 27 27 28 27 29 31 32 34
45 45 46 45 45 46 47 48 49 49 49 51 49 45 41 19 27 34 37 29 27 32 31 31 33 22 24 20 23 23 20 20 22 24 25 27 24 25 26 27 26 28 31 30 31
45 45 45 46 45 46 47 48 49 49 49 48 49 44 32 36 38 39 38 36 34 30 28 25 20 20 17 17 15 14 16 15 20 20 22 24 21 25 24 22 15 15 21 27 30
45 45 45 47 47 47 48 48 47 47 49 49 45 42 29 37 34 36 38 35 36 33 32 22 20 17 14 11 10 15 14 15 16 22 23 24 22 22 21 13 11 14 18 22 27
45 45 45 46 46 47 47 45 44 42 43 47 45 34 28 24 32 33 29 38 24 23 23 19 15 12 12 10 4 9 13 15 14 15 18 18 20 18 14 9 11 15 18 23 26
45 45 45 45 46 47 41 35 32 30 33 28 19 24 22 24 25 22 24 21 19 18 17 18 14 12 11 13 7 14 15 14 14 14 13 13 12 11 9 9 13 16 19 22 25
45 45 44 44 46 43 36 32 32 33 31 31 32 31 31 31 27 26 24 13 18 14 15 19 20 20 11 10 9 10 11 13 13 11 13 9 10 13 13 15 16 18 21 24 27
44 44 44 44 43 39 35 34 36 36 31 28 30 28 26 30 27 25 20 15 13 15 13 11 13 18 16 11 8 9 10 11 7 8 12 12 14 16 17 16 20 24 25 25 26
44 44 44 45 35 38 31 36 37 38 19 5 20 22 12 23 20 22 20 15 12 8 13 13 14 12 18 18 14 13 11 8 7 15 14 18 9 13 16 18 20 21 25 33 42
43 43 43 42 38 33 34 38 38 37 -24 1 15 18 11 11 10 11 13 12 12 9 14 15 18 12 10 11 17 14 23 15 18 18 17 17 15 14 15 11 17 22 35 42 44
43 43 43 39 37 37 38 37 31 -15 -24 2 15 11 10 15 14 14 13 12 14 15 15 15 18 21 13 14 20 26 23 21 22 20 13 15 11 7 9 16 19 35 40 44 45
42 43 41 40 30 37 38 27 -8 -20 1 12 13 11 13 14 13 11 11 12 8 12 18 16 9 16 21 18 21 20 18 11 12 14 5 14 14 12 17 26 37 38 40 43 42
43 40 37 38 38 37 32 8 -5 4 12 18 15 11 15 16 12 8 7 10 11 10 10 18 17 17 20 18 16 20 18 10 -2 2 2 16 10 16 33 37 38 38 40 40 40
40 35 33 34 38 36 25 0 -1 16 18 18 15 12 15 16 16 12 10 10 11 14 10 14 19 19 19 22 19 19 16 18 11 15 14 14 15 25 32 32 31 32 38 40 41
35 31 33 37 39 35 24 12 17 21 23 22 15 19 15 15 15 13 12 14 14 15 18 13 11 17 18 22 23 23 24 18 19 13 9 11 13 19 23 24 23 25 33 40 42
33 28 33 37 38 29 18 18 21 22 24 22 21 18 18 17 17 15 12 14 16 15 16 16 15 13 16 20 17 21 24 27 24 24 10 9 12 27 25 25 19 19 25 38 43
30 21 31 37 26 26 21 24 26 24 24 21 25 24 22 21 18 18 16 18 21 19 12 18 18 13 11 22 25 29 30 29 21 22 25 22 18 28 25 21 19 19 20 34 43
27 27 33 33 19 19 21 23 24 23 21 23 23 24 24 20 17 20 22 24 23 22 17 22 19 12 17 21 19 16 11 27 28 26 23 20 12 27 18 13 14 17 19 24 44
26 19 25 31 25 24 23 21 20 23 20 20 22 24 23 21 22 22 22 23 26 22 30 28 18 15 12 13 15 11 12 13 23 18 15 15 13 9 9 10 11 14 17 22 43
28 22 27 20 22 24 23 21 19 19 22 27 25 25 25 24 22 21 23 25 24 24 28 25 14 14 13 14 16 14 12 13 11 10 9 6 5 6 7 8 11 15 18 19 38
25 24 28 25 26 23 22 19 18 21 25 25 26 26 27 26 27 26 29 24 22 23 26 25 14 18 16 15 13 14 16 17 16 15 14 13 12 15 14 15 16 18 22 35 42
32 32 27 22 23 22 20 20 21 27 25 28 31 30 29 30 30 31 32 32 30 27 24 23 19 14 7 11 13 11 12 13 13 15 15 9 11 11 15 15 18 25 35 43 44
Lifted_Index
15 15 15 15 16 16 16 16 17 17 17 17 16 16 16 15 14 13 12 12 12 12 11 11 10 10 10 10 10 9 8 7 6 5 5 6 8 9 9 9 9 9 8 7 6
15 15 15 16 16 16 16 16 17 17 17 17 16 16 16 15 14 12 11 11 11 11 11 11 10 10 9 9 9 8 7 7 7 6 6 7 8 9 9 9 8 8 8 7 6
15 16 16 16 16 16 16 16 16 17 17 16 16 16 15 14 12 11 10 10 10 10 10 10 10 10 9 8 8 8 7 7 7 6 6 7 8 9 9 8 8 8 7 7 7
16 16 16 16 16 16 16 16 16 16 16 16 16 15 15 13 11 11 11 10 9 9 10 10 10 9 8 8 8 8 7 7 7 7 7 7 7 8 8 8 8 7 7 7 7
16 16 16 16 16 16 16 16 16 16 16 15 15 15 14 12 11 13 13 11 10 9 10 10 9 9 9 8 8 8 8 8 8 7 7 7 7 7 7 7 7 7 7 7 7
16 17 17 17 17 16 16 15 15 15 14 14 14 14 13 12 12 14 14 13 11 10 10 10 10 10 9 9 9 9 9 9 8 8 7 7 6 6 6 6 6 7 7 7 7
16 17 17 17 16 16 15 15 14 14 13 13 13 13 13 12 13 13 13 13 12 12 11 10 10 10 10 10 10 9 9 9 8 8 7 7 6 7 7 6 6 7 7 7 7
16 16 16 16 16 15 15 14 14 13 12 12 12 13 13 13 13 12 11 11 12 12 11 11 11 11 11 10 9 9 8 7 7 7 7 7 6 7 7 7 7 7 8 8 8
15 15 15 15 15 15 15 14 14 13 12 11 12 12 12 12 12 11 11 10 10 10 11 10 11 11 10 9 8 7 6 6 6 7 7 7 7 8 8 8 8 8 8 8 8
14 15 15 15 15 15 14 14 14 13 12 11 11 11 12 12 12 11 11 10 10 9 10 10 9 9 9 7 6 5 5 5 6 6 7 7 7 8 8 8 8 8 8 8 8
14 14 14 15 14 14 14 14 14 13 12 11 11 11 12 12 12 11 11 10 9 9 9 9 8 8 8 7 6 5 4 5 6 6 6 6 6 7 8 8 8 8 8 8 8
14 14 14 14 14 15 15 15 14 13 12 11 11 11 11 11 11 10 10 10 9 8 8 8 7 7 7 7 6 5 4 4 5 6 6 5 5 6 7 7 7 7 8 8 9
14 14 14 14 15 15 15 15 15 13 11 10 10 10 11 11 10 9 9 8 7 7 7 7 7 7 7 6 5 4 4 3 4 4 4 4 4 5 6 6 7 7 7 8 8
14 14 14 14 14 15 15 15 14 12 9 9 10 10 11 11 10 9 8 7 6 6 6 7 7 7 6 6 5 4 3 3 3 3 3 3 3 4 5 6 6 6 6 6 6
13 13 13 14 14 14 14 14 12 9 7 7 9 10 10 10 9 8 7 7 6 6 6 6 6 6 6 5 4 4 3 3 3 2 2 2 3 4 5 5 5 5 5 4 4
13 13 13 14 14 13 13 12 9 6 5 6 8 8 9 9 8 8 7 6 5 5 5 6 6 6 5 5 4 3 3 2 2 2 2 2 2 3 5 5 5 4 4 4 4
12 13 13 13 13 13 12 9 6 4 5 6 7 8 8 7 7 7 6 5 4 4 4 4 5 6 5 4 3 2 2 1 1 1 1 2 3 3 4 4 4 4 4 4 5
12 13 13 12 12 11 10 7 4 5 6 7 8 7 7 7 7 7 6 5 4 4 3 2 3 4 4 4 3 2 2 1 0 0 1 2 3 3 3 4 4 4 5 5 5
12 12 12 11 11 10 8 6 5 6 7 7 7 7 6 6 6 6 5 4 4 3 3 2 2 2 3 3 2 2 2 1 1 1 1 2 3 3 3 3 4 4 4 4 4
12 11 10 10 10 9 7 6 6 7 7 6 6 5 5 5 5 5 4 4 3 3 3 2 1 1 1 1 1 1 1 1 1 0 0 1 2 3 3 3 4 4 5 4 4
11 10 10 9 9 8 7 7 7 7 6 5 5 4 4 4 4 4 3 3 3 3 3 3 2 1 1 1 1 0 0 -0 0 0 0 1 2 2 3 3 4 5 6 5 4
10 9 9 9 8 8 7 7 7 6 6 5 4 3 3 3 3 3 3 3 3 3 2 2 2 1 1 1 1 1 0 0 0 0 0 1 2 2 2 3 4 6 7 6 4
9 9 9 9 8 7 7 7 7 6 6 5 3 3 2 2 2 2 2 2 2 2 2 1 1 1 1 1 1 1 1 1 1 1 1 1 2 2 3 3 5 6 7 7 5
8 8 9 9 8 8 7 7 7 6 5 4 3 2 2 1 1 1 2 2 2 1 1 1 1 1 1 1 2 2 2 2 2 1 1 2 2 3 3 4 5 6 7 6 4
8 8 8 8 8 8 8 7 6 6 4 3 2 1 1 1 1 1 1 1 1 1 0 0 1 1 1 2 2 3 3 3 2 2 2 2 3 3 4 4 5 5 6 5 3
9 9 8 8 8 8 7 7 5 4 3 2 1 1 0 0 0 1 1 0 0 0 -0 0 1 1 1 2 2 2 3 2 2 2 2 2 3 4 4 5 5 4 4 2 1
9 9 9 8 8 7 7 6 4 3 2 1 1 0 0 0 1 1 1 0 0 0 -0 0 0 1 1 2 2 2 2 2 2 2 2 2 3 4 4 5 5 4 2 0 -0